Location: Canyam�s
(41.5996°N, 2.4450°E)
Time: 04:32:19
(UTC+00:00)

S3M - Pass Details

Date: 06 June 2020
Orbit: 950 x 1004 km, 83.0° (Epoch: 04 July)

Event Time Altitude Azimuth Distance (km) Brightness Sun altitude
Rises 22:11:12 0° 352° (N) 3,656 8.3 -21.8°
Reaches altitude 10° 22:13:42 10° 352° (N) 2,712 7.4 -21.9°
Maximum altitude 22:19:55 87° 264° (W) 982 3.9 -22.4°
Enters shadow 22:22:09 43° 178° (S) 1,339 4.3 -22.6°
